{"data":{"norad_id":65488,"epoch":"2026-05-25T01:45:06.009408Z","epoch_age_seconds":71846,"freshness":"FRESH","line1":"1 65488U 25197A   26145.07298622  .00002486  00000+0  15537-3 0  9992","line2":"2 65488  97.4132 327.9709 0015283 106.7353 253.5555 15.10249695 39521","mean_motion":15.10249695,"eccentricity":0.0015283,"inclination_deg":97.4132,"raan_deg":327.9709,"arg_perigee_deg":106.7353,"mean_anomaly_deg":253.5555,"bstar":0.00015537,"rev_number":3952,"period_min":95.348471498946,"perigee_km":524.87185083622,"apogee_km":546.00388377563,"semimajor_km":6913.5748673059,"source":"CELESTRAK","updated_at":"2026-05-25T13:38:05.451397Z"}}